BOV274 SLLP-SPZO

Flight info

Callsign BOV274
Flight time 0h 51m
Altitude 32000
Route USAR1C ELAKO UM657 JUL UV11 ILMOX ILMO3B
Aircraft B737/M-V/N

Departure

Time 2026-04-27 14:29
Airport El Alto International Airport (SLLP)

Arrival

Time 2026-04-27 15:21
Airport Alejandro Velasco Astete International Airport (SPZO)
Time Latitude Longitude Altitude Speed Heading
2026-04-27 14:10 -16.50971 -68.17678 13322 ft 0 kts 32°
2026-04-27 14:21 -16.50982 -68.17686 13322 ft 2 kts 32°
2026-04-27 14:21 -16.50997 -68.17695 13322 ft 3 kts 26°
2026-04-27 14:22 -16.51016 -68.17699 13322 ft 3 kts 352°
2026-04-27 14:22 -16.51035 -68.17690 13322 ft 3 kts 317°
2026-04-27 14:22 -16.51035 -68.17689 13322 ft 0 kts 316°
2026-04-27 14:23 -16.51032 -68.17693 13322 ft 1 kts 314°
2026-04-27 14:23 -16.51019 -68.17710 13322 ft 4 kts 304°
2026-04-27 14:23 -16.51007 -68.17734 13322 ft 4 kts 291°
2026-04-27 14:23 -16.51000 -68.17759 13322 ft 4 kts 285°
2026-04-27 14:24 -16.50993 -68.17797 13322 ft 6 kts 277°
2026-04-27 14:24 -16.50989 -68.17841 13322 ft 6 kts 273°
2026-04-27 14:24 -16.50996 -68.17885 13322 ft 6 kts 246°
2026-04-27 14:24 -16.51023 -68.17920 13322 ft 7 kts 225°
2026-04-27 14:25 -16.51064 -68.17962 13322 ft 9 kts 225°
2026-04-27 14:25 -16.51116 -68.18016 13322 ft 12 kts 225°
2026-04-27 14:25 -16.51179 -68.18081 13322 ft 14 kts 225°
2026-04-27 14:25 -16.51251 -68.18158 13322 ft 16 kts 232°
2026-04-27 14:26 -16.51314 -68.18259 13322 ft 18 kts 238°
2026-04-27 14:26 -16.51353 -68.18385 13322 ft 20 kts 261°
2026-04-27 14:26 -16.51355 -68.18557 13322 ft 36 kts 271°
2026-04-27 14:26 -16.51340 -68.19047 13322 ft 101 kts 272°
2026-04-27 14:27 -16.51314 -68.19827 13322 ft 103 kts 272°
2026-04-27 14:27 -16.51294 -68.20427 13322 ft 48 kts 272°
2026-04-27 14:27 -16.51286 -68.20673 13322 ft 30 kts 272°
2026-04-27 14:27 -16.51278 -68.20889 13322 ft 28 kts 275°
2026-04-27 14:28 -16.51236 -68.21034 13322 ft 12 kts 295°
2026-04-27 14:28 -16.51250 -68.21078 13322 ft 3 kts 193°
2026-04-27 14:28 -16.51269 -68.21058 13322 ft 7 kts 104°
2026-04-27 14:28 -16.51277 -68.20878 13322 ft 58 kts 92°
2026-04-27 14:29 -16.51303 -68.20160 13323 ft 138 kts 92°
2026-04-27 14:29 -16.51346 -68.18899 13323 ft 209 kts 92°
2026-04-27 14:29 -16.51405 -68.17174 13447 ft 262 kts 92°
2026-04-27 14:29 -16.51605 -68.15141 14012 ft 305 kts 103°
2026-04-27 14:30 -16.52493 -68.12991 14734 ft 338 kts 121°
2026-04-27 14:30 -16.54071 -68.11120 15774 ft 353 kts 140°
2026-04-27 14:30 -16.56277 -68.09906 16782 ft 367 kts 163°
2026-04-27 14:30 -16.58842 -68.09624 17564 ft 377 kts 187°
2026-04-27 14:31 -16.61299 -68.10447 18829 ft 366 kts 211°
2026-04-27 14:31 -16.63317 -68.12111 19395 ft 384 kts 229°
2026-04-27 14:31 -16.64858 -68.14480 19386 ft 405 kts 247°
2026-04-27 14:31 -16.65748 -68.17298 19137 ft 421 kts 260°
2026-04-27 14:32 -16.65965 -68.20307 19591 ft 411 kts 274°
2026-04-27 14:32 -16.65433 -68.23273 20122 ft 420 kts 287°
2026-04-27 14:32 -16.64194 -68.26108 20271 ft 443 kts 300°
2026-04-27 14:32 -16.62443 -68.28751 20805 ft 449 kts 303°
2026-04-27 14:33 -16.60649 -68.31412 21879 ft 442 kts 304°
2026-04-27 14:33 -16.58705 -68.33876 23135 ft 427 kts 309°
2026-04-27 14:33 -16.56762 -68.36158 23843 ft 420 kts 308°
2026-04-27 14:33 -16.54906 -68.38511 23960 ft 418 kts 306°
2026-04-27 14:34 -16.53141 -68.40865 24152 ft 405 kts 305°
2026-04-27 14:34 -16.52829 -68.41289 24237 ft 402 kts 305°
2026-04-27 14:34 -16.51495 -68.43115 24673 ft 395 kts 305°
2026-04-27 14:35 -16.49851 -68.45391 25278 ft 391 kts 304°
2026-04-27 14:35 -16.48227 -68.47652 25896 ft 393 kts 304°
2026-04-27 14:35 -16.46577 -68.49959 26507 ft 399 kts 304°
2026-04-27 14:35 -16.44894 -68.52317 27042 ft 406 kts 304°
2026-04-27 14:36 -16.43222 -68.54695 27549 ft 410 kts 303°
2026-04-27 14:36 -16.41575 -68.57111 28050 ft 411 kts 303°
2026-04-27 14:36 -16.39926 -68.59569 28554 ft 413 kts 303°
2026-04-27 14:36 -16.38280 -68.62042 29057 ft 416 kts 303°
2026-04-27 14:37 -16.36642 -68.64513 29555 ft 419 kts 303°
2026-04-27 14:37 -16.34966 -68.67046 30061 ft 423 kts 303°
2026-04-27 14:37 -16.33303 -68.69562 30560 ft 426 kts 303°
2026-04-27 14:37 -16.31614 -68.72118 31062 ft 430 kts 303°
2026-04-27 14:38 -16.29913 -68.74693 31564 ft 432 kts 303°
2026-04-27 14:38 -16.28207 -68.77276 31932 ft 439 kts 303°
2026-04-27 14:38 -16.26457 -68.79927 32014 ft 450 kts 303°
2026-04-27 14:39 -16.22886 -68.85339 32000 ft 454 kts 303°
2026-04-27 14:39 -16.19304 -68.90755 31995 ft 450 kts 303°
2026-04-27 14:40 -16.15778 -68.96079 31995 ft 448 kts 303°
2026-04-27 14:40 -16.12242 -69.01407 31996 ft 447 kts 303°
2026-04-27 14:41 -16.08701 -69.06734 31996 ft 447 kts 303°
2026-04-27 14:41 -16.05158 -69.12057 31996 ft 447 kts 303°
2026-04-27 14:42 -16.01613 -69.17374 31996 ft 447 kts 303°
2026-04-27 14:42 -15.98058 -69.22699 31996 ft 447 kts 303°
2026-04-27 14:43 -15.94503 -69.28024 31996 ft 447 kts 302°
2026-04-27 14:43 -15.91158 -69.33507 32002 ft 447 kts 299°
2026-04-27 14:44 -15.88041 -69.39039 31997 ft 446 kts 298°
2026-04-27 14:44 -15.84980 -69.44646 31996 ft 446 kts 298°
2026-04-27 14:45 -15.81946 -69.50264 31996 ft 446 kts 297°
2026-04-27 14:45 -15.78910 -69.55898 31996 ft 446 kts 297°
2026-04-27 14:46 -15.75870 -69.61535 31996 ft 446 kts 297°
2026-04-27 14:46 -15.72826 -69.67171 31996 ft 446 kts 298°
2026-04-27 14:47 -15.69793 -69.72778 31996 ft 446 kts 298°
2026-04-27 14:47 -15.66752 -69.78390 31996 ft 446 kts 298°
2026-04-27 14:48 -15.63700 -69.84019 31996 ft 446 kts 298°
2026-04-27 14:48 -15.59140 -69.92415 31996 ft 446 kts 298°
2026-04-27 14:49 -15.56084 -69.98036 31996 ft 446 kts 298°
2026-04-27 14:49 -15.53026 -70.03655 31996 ft 446 kts 298°
2026-04-27 14:50 -15.49970 -70.09268 31996 ft 446 kts 298°
2026-04-27 14:50 -15.46639 -70.14691 31996 ft 449 kts 308°
2026-04-27 14:51 -15.42175 -70.19256 31998 ft 452 kts 317°
2026-04-27 14:51 -15.38095 -70.22674 31997 ft 453 kts 320°
2026-04-27 14:52 -15.32218 -70.27253 31996 ft 453 kts 321°
2026-04-27 14:52 -15.27152 -70.31134 31996 ft 453 kts 321°
2026-04-27 14:53 -15.22104 -70.35017 31996 ft 453 kts 321°
2026-04-27 14:53 -15.20256 -70.36447 31996 ft 453 kts 321°
2026-04-27 14:57 -15.19901 -70.36722 31996 ft 453 kts 321°
2026-04-27 14:57 -15.14851 -70.40669 31996 ft 453 kts 320°
2026-04-27 14:58 -15.09871 -70.44630 31996 ft 453 kts 320°
2026-04-27 14:58 -15.04892 -70.48609 31996 ft 453 kts 320°
2026-04-27 14:59 -14.99920 -70.52585 31996 ft 453 kts 320°
2026-04-27 14:59 -14.94929 -70.56575 31996 ft 453 kts 320°
2026-04-27 15:00 -14.89946 -70.60555 31996 ft 453 kts 320°
2026-04-27 15:00 -14.84932 -70.64555 31996 ft 453 kts 320°
2026-04-27 15:01 -14.79959 -70.68521 31996 ft 453 kts 320°
2026-04-27 15:01 -14.74974 -70.72491 31996 ft 453 kts 320°
2026-04-27 15:02 -14.71944 -70.74902 31996 ft 453 kts 320°
2026-04-27 15:02 -14.69738 -70.76657 31996 ft 453 kts 320°
2026-04-27 15:03 -14.66744 -70.79038 31927 ft 454 kts 320°
2026-04-27 15:03 -14.64248 -70.81022 31717 ft 456 kts 320°
2026-04-27 15:03 -14.61723 -70.83028 31470 ft 450 kts 320°
2026-04-27 15:04 -14.59235 -70.84974 31218 ft 443 kts 320°
2026-04-27 15:04 -14.56778 -70.86870 30966 ft 439 kts 321°
2026-04-27 15:04 -14.54340 -70.88741 30715 ft 436 kts 321°
2026-04-27 15:04 -14.51907 -70.90607 30463 ft 433 kts 321°
2026-04-27 15:05 -14.49535 -70.92430 30216 ft 430 kts 321°
2026-04-27 15:05 -14.47115 -70.94296 29962 ft 428 kts 320°
2026-04-27 15:05 -14.44748 -70.96127 29712 ft 425 kts 320°
2026-04-27 15:05 -14.42400 -70.97950 29462 ft 423 kts 320°
2026-04-27 15:06 -14.40051 -70.99780 29211 ft 421 kts 320°
2026-04-27 15:06 -14.39033 -71.00574 29102 ft 421 kts 320°
2026-04-27 15:06 -14.36694 -71.02402 28850 ft 419 kts 320°
2026-04-27 15:06 -14.34385 -71.04210 28600 ft 417 kts 320°
2026-04-27 15:07 -14.32065 -71.06030 28348 ft 415 kts 320°
2026-04-27 15:07 -14.29779 -71.07824 28098 ft 413 kts 320°
2026-04-27 15:07 -14.27490 -71.09623 27846 ft 412 kts 320°
2026-04-27 15:07 -14.25239 -71.11393 27598 ft 410 kts 320°
2026-04-27 15:08 -14.22967 -71.13179 27346 ft 408 kts 320°
2026-04-27 15:08 -14.20718 -71.14948 27096 ft 407 kts 320°
2026-04-27 15:08 -14.18459 -71.16726 26844 ft 405 kts 320°
2026-04-27 15:08 -14.16220 -71.18488 26593 ft 403 kts 320°
2026-04-27 15:09 -14.14504 -71.19837 26400 ft 402 kts 320°
2026-04-27 15:09 -14.12963 -71.21050 26226 ft 401 kts 320°
2026-04-27 15:09 -14.10743 -71.22796 25974 ft 399 kts 320°
2026-04-27 15:09 -14.08546 -71.24524 25724 ft 398 kts 320°
2026-04-27 15:10 -14.06334 -71.26260 25472 ft 396 kts 320°
2026-04-27 15:10 -14.06128 -71.26423 25448 ft 396 kts 320°
2026-04-27 15:10 -14.04342 -71.27825 25244 ft 394 kts 320°
2026-04-27 15:10 -14.02168 -71.29531 24993 ft 393 kts 320°
2026-04-27 15:11 -13.99999 -71.31232 24743 ft 391 kts 320°
2026-04-27 15:11 -13.97851 -71.32918 24494 ft 390 kts 320°
2026-04-27 15:11 -13.95713 -71.34594 24216 ft 382 kts 320°
2026-04-27 15:11 -13.93609 -71.36242 23858 ft 371 kts 320°
2026-04-27 15:12 -13.91597 -71.37818 23484 ft 360 kts 320°
2026-04-27 15:12 -13.89616 -71.39370 23102 ft 350 kts 320°
2026-04-27 15:12 -13.87705 -71.40867 22725 ft 343 kts 319°
2026-04-27 15:12 -13.85811 -71.42351 22346 ft 338 kts 319°
2026-04-27 15:13 -13.83962 -71.43801 21972 ft 334 kts 319°
2026-04-27 15:13 -13.82119 -71.45247 21595 ft 331 kts 319°
2026-04-27 15:13 -13.80284 -71.46688 21217 ft 328 kts 319°
2026-04-27 15:13 -13.78476 -71.48108 20837 ft 322 kts 319°
2026-04-27 15:14 -13.76821 -71.49584 20461 ft 312 kts 312°
2026-04-27 15:14 -13.75368 -71.51206 20082 ft 303 kts 307°
2026-04-27 15:14 -13.74095 -71.52899 19707 ft 298 kts 303°
2026-04-27 15:14 -13.72946 -71.54641 19334 ft 295 kts 300°
2026-04-27 15:15 -13.71864 -71.56441 18957 ft 294 kts 298°
2026-04-27 15:15 -13.70834 -71.58261 18581 ft 293 kts 297°
2026-04-27 15:15 -13.69815 -71.60087 18204 ft 292 kts 297°
2026-04-27 15:15 -13.68803 -71.61879 17831 ft 290 kts 298°
2026-04-27 15:16 -13.67773 -71.63671 17497 ft 290 kts 298°
2026-04-27 15:16 -13.66745 -71.65436 17086 ft 289 kts 298°
2026-04-27 15:16 -13.65685 -71.67175 16696 ft 284 kts 301°
2026-04-27 15:16 -13.64551 -71.68833 16316 ft 280 kts 304°
2026-04-27 15:17 -13.63357 -71.70390 15940 ft 276 kts 306°
2026-04-27 15:17 -13.62167 -71.71894 15566 ft 272 kts 306°
2026-04-27 15:17 -13.61006 -71.73420 15188 ft 268 kts 304°
2026-04-27 15:17 -13.59903 -71.74961 14807 ft 265 kts 302°
2026-04-27 15:18 -13.58879 -71.76530 14406 ft 263 kts 301°
2026-04-27 15:18 -13.57893 -71.78105 13927 ft 264 kts 298°
2026-04-27 15:18 -13.57078 -71.79818 13402 ft 269 kts 292°
2026-04-27 15:18 -13.56421 -71.81653 12777 ft 268 kts 288°
2026-04-27 15:19 -13.56058 -71.82883 12515 ft 252 kts 287°
2026-04-27 15:19 -13.55552 -71.84522 12325 ft 227 kts 288°
2026-04-27 15:19 -13.55078 -71.85991 12084 ft 208 kts 288°
2026-04-27 15:19 -13.54634 -71.87384 11666 ft 198 kts 287°
2026-04-27 15:20 -13.54264 -71.88703 11379 ft 189 kts 284°
2026-04-27 15:20 -13.53968 -71.90018 11118 ft 186 kts 280°
2026-04-27 15:20 -13.53832 -71.91329 10966 ft 186 kts 275°
2026-04-27 15:20 -13.53702 -71.92640 10869 ft 176 kts 276°
2026-04-27 15:21 -13.53587 -71.93712 10869 ft 119 kts 275°
2026-04-27 15:21 -13.53529 -71.94313 10869 ft 50 kts 276°
2026-04-27 15:21 -13.53498 -71.94604 10869 ft 37 kts 274°
2026-04-27 15:21 -13.53475 -71.94856 10869 ft 34 kts 275°
2026-04-27 15:22 -13.53455 -71.95077 10869 ft 29 kts 278°
2026-04-27 15:22 -13.53434 -71.95265 10869 ft 24 kts 275°
2026-04-27 15:22 -13.53439 -71.95402 10869 ft 13 kts 216°
2026-04-27 15:22 -13.53492 -71.95410 10869 ft 0 kts 170°
2026-04-27 15:24 -13.55285 -71.85351 12219 ft 216 kts 288°
2026-04-27 15:24 -13.55099 -71.85923 12101 ft 209 kts 288°
2026-04-27 15:25 -13.54661 -71.87295 11690 ft 198 kts 288°
2026-04-27 15:25 -13.54285 -71.88622 11395 ft 190 kts 284°
2026-04-27 15:25 -13.53984 -71.89929 11130 ft 186 kts 281°
2026-04-27 15:25 -13.53839 -71.91247 10973 ft 186 kts 275°
2026-04-27 15:26 -13.53709 -71.92567 10869 ft 178 kts 276°
2026-04-27 15:26 -13.53492 -71.95410 10869 ft 1 kts 170°
2026-04-27 15:26 -13.53497 -71.95409 10869 ft 4 kts 170°
2026-04-27 15:26 -13.53558 -71.95339 10869 ft 16 kts 102°
2026-04-27 15:27 -13.53581 -71.95144 10869 ft 39 kts 96°
2026-04-27 15:27 -13.53605 -71.94921 10869 ft 55 kts 96°
2026-04-27 15:27 -13.53641 -71.94554 10869 ft 39 kts 96°
2026-04-27 15:27 -13.53686 -71.94442 10869 ft 10 kts 144°
2026-04-27 15:28 -13.53733 -71.94405 10869 ft 5 kts 143°
2026-04-27 15:28 -13.53737 -71.94402 10869 ft 0 kts 143°
2026-04-27 15:53 -16.50989 -68.17874 13313 ft 0 kts